Vertical_Velocity
-1 -1 -1 -1 -1 -1 -1 -1 -1 -0 -0 0 0 1 1 1 1 1 0 0 0 0 0 0 0 0 0 0 0 0 0 1 1 1 0 0 0 0 0 0 0 0 0 0 0 0 0 0 0 1 1 1 1 1 1 0 -0 -0 -0 -0 -0 0 0 1 2 2 2 2 2 1 0 -1 -1 -1 -1 -1 -0 0 1 1 1 0 -0 -1 -1 -1 0 0 0 1 0 0 0 0 -0 0 0 0 0 0 0 0 0
-2 -2 -1 -1 -1 -1 -1 -1 -1 -1 -0 0 0 1 1 1 1 1 1 0 0 -0 0 0 0 -0 -1 -1 -0 0 0 0 1 1 1 0 0 0 0 0 0 1 1 0 0 0 0 0 1 1 1 1 1 1 1 0 0 0 -0 -1 -1 -1 -0 0 0 1 2 2 2 1 1 0 -0 -1 -1 -2 -1 -1 0 0 1 1 0 0 -0 0 0 0 0 0 1 0 0 0 0 0 0 0 1 1 1 1 1
-2 -2 -2 -1 -1 -1 -1 -1 -1 -0 0 0 0 0 0 0 0 0 0 0 0 0 0 0 0 -0 -0 -1 -1 -1 -0 0 0 0 1 0 0 0 1 1 1 1 1 1 0 0 0 0 0 0 0 0 0 0 0 0 -0 -0 -1 -1 -1 -1 -1 -1 -1 -0 0 1 1 1 1 1 1 0 -0 -1 -1 -1 -1 -0 0 0 0 0 1 0 0 -0 0 0 0 1 0 0 0 0 0 0 1 1 1 1 1
-1 -1 -1 -1 -1 -1 -1 -0 -0 -1 -0 0 0 0 0 0 0 0 0 0 0 0 -0 0 0 0 0 -0 -0 -0 -0 -0 0 0 1 1 1 1 1 1 1 1 0 0 0 -0 -1 -1 -1 -1 -1 -1 -1 -1 -1 -1 -0 0 -0 -0 -1 -1 -1 -1 -1 -1 -1 0 0 1 1 1 1 1 1 1 0 -0 -0 0 0 0 0 1 1 0 0 -0 -0 -0 0 0 1 1 1 1 1 1 0 0 1 1 1
-0 -0 -0 -0 -0 -0 -0 -0 -0 -0 -0 0 0 0 0 -0 -0 -0 0 0 0 0 -0 0 0 0 0 0 0 0 0 0 0 0 0 0 1 1 0 0 0 0 -1 -1 -1 -1 -2 -2 -2 -2 -2 -2 -1 -1 -1 -1 -0 0 0 0 0 0 -0 -1 -1 -1 -1 -1 -0 0 0 0 1 1 1 2 2 2 1 1 1 1 1 1 1 0 0 0 0 0 0 0 0 0 1 1 1 1 1 0 0 0 0
0 0 0 -0 -0 -0 -0 -0 0 0 0 0 0 0 0 0 0 0 0 0 0 0 0 0 0 -0 0 0 0 0 0 -0 -1 -1 -1 -1 -1 -1 -1 -1 -2 -2 -2 -2 -2 -2 -2 -2 -2 -2 -2 -2 -1 -1 -1 -0 0 0 0 1 1 1 1 1 0 0 0 -0 -0 -0 0 0 0 1 1 2 2 2 3 2 2 2 1 1 1 1 1 0 0 0 0 0 0 0 0 1 1 1 1 1 0 0 -0
-0 -0 -0 -0 -0 -0 -1 -1 -1 -1 -0 -1 -0 -0 -0 -0 -0 -0 -0 0 0 0 0 0 0 -0 -0 -1 -1 -1 -1 -1 -2 -2 -2 -2 -2 -2 -2 -3 -3 -3 -3 -3 -3 -3 -2 -2 -2 -2 -2 -1 -1 -1 -1 0 0 0 0 1 1 2 2 2 2 1 1 1 1 1 1 0 0 0 1 1 2 2 2 2 2 2 2 2 2 1 1 1 1 1 1 0 0 0 -0 0 0 0 0 0 0 0 0
-1 -1 -1 -1 -1 -1 -1 -1 -1 -1 -1 -1 -1 -1 -1 -1 -0 -0 -1 -0 -0 -0 -1 -1 -1 -1 -1 -1 -1 -1 -1 -2 -2 -2 -3 -3 -3 -3 -3 -3 -3 -3 -3 -3 -2 -2 -2 -2 -1 -1 -1 -1 -0 -0 -0 0 0 0 1 1 1 2 2 2 2 2 2 2 2 2 1 1 1 0 1 1 1 1 1 1 1 1 1 1 1 1 1 1 1 1 1 1 0 0 -1 -1 -1 -1 -1 -1 -1 -1 -0
-1 -1 -1 -1 -1 -2 -2 -2 -2 -2 -2 -1 -1 -1 -1 -1 -1 -1 -1 -1 -1 -1 -1 -1 -1 -1 -1 -1 -1 -1 -1 -1 -2 -2 -2 -2 -2 -2 -2 -3 -2 -2 -2 -2 -2 -2 -1 -1 -1 -1 -1 -0 0 0 0 0 0 0 1 1 2 2 2 2 2 3 3 3 2 2 1 1 1 1 1 1 1 1 0 0 0 0 0 1 1 1 1 1 1 1 1 0 0 0 -0 -1 -1 -1 -2 -2 -2 -2 -1
-1 -1 -1 -1 -2 -2 -2 -2 -2 -1 -1 -1 -1 -1 -1 -1 -1 -1 -1 -1 -1 -1 -1 -1 -1 -0 -0 -0 -1 -1 -1 -1 -1 -1 -1 -1 -1 -1 -1 -1 -1 -1 -1 -1 -1 -1 -1 -1 -1 -1 -1 -0 0 0 0 0 0 1 1 1 1 2 2 2 2 2 3 3 2 2 1 1 1 1 1 1 1 1 1 1 1 0 0 0 0 0 0 0 0 0 0 -0 -1 -1 -1 -1 -1 -2 -2 -2 -2 -2 -2
-1 -1 -1 -1 -1 -1 -1 -1 -1 -1 -1 -0 -0 -0 -0 -0 -0 -0 -0 -0 0 0 0 0 0 0 1 1 1 1 1 1 1 1 1 1 1 1 1 0 0 0 -0 -0 -0 -0 -0 -0 -1 -1 -1 -0 0 0 0 0 0 0 1 1 1 1 1 1 1 2 2 2 2 2 2 2 2 1 1 1 1 1 1 1 1 1 1 1 1 1 0 0 0 -0 -1 -1 -1 -1 -1 -2 -1 -1 -1 -1 -2 -2 -2
-1 -0 -0 -0 0 0 0 0 0 0 0 0 0 0 0 0 -0 -0 -0 0 0 1 1 1 1 1 1 1 1 1 1 1 1 2 2 2 1 1 1 1 1 1 0 0 0 0 -0 -0 -1 -1 -1 -1 -0 -0 -0 -0 -0 0 0 0 0 0 0 1 1 1 1 0 0 1 1 2 2 1 1 1 1 1 1 1 1 1 1 1 1 1 1 0 0 -0 -1 -2 -2 -2 -2 -2 -1 -1 -1 -1 -1 -1 -2
-0 -0 0 0 0 0 0 -0 -0 -0 -0 -0 0 0 0 0 0 0 0 0 0 1 1 1 1 1 2 2 2 2 2 2 2 2 2 2 2 2 2 1 1 1 1 1 0 0 0 0 -0 -1 -1 -1 -0 -0 -1 -1 -1 -1 -0 -0 -0 -0 0 0 1 1 0 0 0 0 1 1 1 1 1 1 1 2 2 1 1 0 0 1 1 1 1 0 0 0 -1 -1 -1 -2 -2 -2 -1 -1 -1 -1 -1 -1 -2
0 0 -0 -0 -0 -0 -1 -1 -1 -1 -1 -0 -0 0 0 0 0 0 0 0 0 0 0 0 1 1 1 1 1 1 1 1 1 2 2 2 2 2 2 2 2 1 1 1 1 1 1 1 0 -0 -0 -0 -0 -0 -1 -1 -1 -1 -1 -1 -1 -1 -1 0 1 1 0 0 0 0 1 1 1 1 1 2 2 2 2 1 1 1 0 1 1 1 1 1 0 -0 -1 -1 -1 -2 -2 -1 -1 -1 -1 -1 -1 -1 -2
-0 -1 -1 -1 -1 -1 -1 -1 -1 -1 -1 -1 -1 -0 0 0 0 0 -0 -1 -1 -1 -1 -1 -0 0 0 0 1 1 0 0 1 1 1 1 1 1 1 1 2 2 2 2 2 2 1 1 1 0 0 0 -0 -1 -1 -1 -2 -2 -1 -1 -1 -1 -1 0 1 0 -0 -0 0 0 0 0 1 1 2 2 3 3 2 2 1 1 2 1 1 1 1 0 -1 -1 -2 -1 -1 -2 -1 -1 -1 -1 -0 0 -0 -1 -2
-1 -1 -1 -1 -1 -1 -1 -1 -1 -1 -1 -1 -1 -1 -1 -0 0 -0 -0 -1 -1 -1 -1 -1 -1 -1 -0 0 -0 -0 -0 -1 -0 0 0 0 1 1 1 1 1 1 1 2 2 2 1 1 1 0 -0 -1 -1 -1 -1 -2 -2 -2 -2 -2 -2 -1 -1 0 0 0 -1 -1 -0 0 0 0 1 1 1 2 2 2 2 2 2 2 2 2 2 2 1 -0 -2 -2 -2 -2 -2 -1 -0 0 0 1 1 1 0 -0 -1
-2 -2 -2 -2 -1 -1 -1 -1 -1 -1 -1 -1 -1 -1 -1 -1 -1 -1 -1 -1 -1 -1 -1 -1 -1 -1 -0 -0 -0 -0 -1 -1 -1 -1 -0 -0 0 0 0 0 0 0 0 1 1 1 0 0 0 -1 -1 -1 -1 -2 -1 -1 -2 -2 -2 -2 -2 -1 -1 0 0 0 -1 -1 -1 -0 0 0 1 1 1 1 2 2 1 2 2 3 3 3 2 2 1 -1 -2 -3 -2 -2 -2 -1 0 1 2 2 1 1 0 0 0
-2 -2 -2 -2 -2 -2 -1 -1 -1 -1 -1 -1 -1 -2 -2 -2 -1 -1 -1 -1 -1 -1 -1 -1 -1 -1 -1 -0 -0 -0 -0 -1 -1 -1 -1 -0 0 0 0 -0 -0 -1 -1 -1 -1 -1 -1 -1 -1 -1 -2 -2 -2 -2 -2 -2 -1 -1 -1 -1 -1 -1 -1 0 0 0 -1 -1 -1 -1 -0 0 0 1 1 1 1 1 1 1 2 2 2 2 2 1 0 -2 -2 -2 -1 -1 -2 -2 -1 2 2 2 1 1 1 1 2
-2 -2 -2 -2 -2 -2 -2 -2 -2 -2 -2 -2 -1 -1 -1 -1 -1 -1 -1 -1 -1 -1 -1 -1 -1 -1 -1 -0 0 0 0 -0 -1 -1 -1 -0 -0 0 0 -0 -1 -1 -1 -1 -1 -2 -2 -2 -2 -2 -2 -2 -2 -2 -2 -2 -2 -1 -1 -1 -1 -1 -1 0 0 0 -0 -0 -0 -0 -0 0 0 0 1 1 1 1 1 1 1 1 2 1 1 0 -0 -2 -2 -1 0 -1 -1 -1 0 1 2 2 1 1 1 1 2
-1 -1 -2 -2 -2 -2 -2 -2 -2 -2 -2 -2 -2 -2 -1 -1 -1 -1 -1 -1 -1 -1 -1 -1 -1 -1 -1 -1 -0 0 0 -0 -0 -1 -1 -1 -1 -0 -0 -1 -1 -1 -1 -1 -1 -2 -2 -2 -2 -2 -1 -2 -2 -2 -2 -2 -2 -1 -1 -1 -1 -1 -1 -0 0 1 0 0 0 -0 -0 0 0 0 0 1 1 1 1 1 1 1 1 1 1 0 -2 -2 -2 -1 1 0 0 1 1 1 1 1 0 -0 0 1 1
-1 -1 -1 -2 -2 -2 -2 -2 -2 -2 -2 -2 -2 -2 -2 -2 -1 -1 -1 -1 -1 -1 -0 -1 -1 -1 -1 -1 -1 -1 -1 -1 -1 -1 -1 -1 -1 -1 -1 -1 -1 -1 -2 -1 -1 -1 -1 -1 -1 -1 -1 -1 -1 -1 -1 -1 -1 -1 -1 -1 -1 -1 -1 0 0 1 1 1 0 0 0 0 0 0 0 1 1 2 2 1 1 1 1 1 1 -0 -2 -2 -2 -0 1 2 1 1 0 0 0 0 0 -1 -1 -1 0
-1 -1 -1 -2 -2 -2 -2 -2 -2 -2 -2 -2 -2 -2 -2 -2 -2 -2 -1 -1 -1 -1 -1 -0 -1 -1 -1 -1 -1 -1 -1 -1 -1 -1 -2 -1 -1 -1 -1 -1 -1 -1 -1 -1 -1 -1 -1 -1 -0 -0 -0 -1 -0 -0 -1 -1 -1 -1 -1 -1 -1 -1 -1 -0 0 1 1 1 1 0 0 -0 -0 0 0 1 1 2 2 2 2 2 1 1 0 -0 -2 -2 -1 0 3 2 1 0 -0 0 0 1 0 -1 -2 -2 -1
-1 -1 -2 -2 -2 -2 -2 -2 -2 -2 -2 -2 -2 -2 -2 -2 -2 -2 -2 -1 -1 -1 -1 -0 -0 -1 -0 -1 -1 -1 -1 -1 -1 -1 -1 -2 -2 -2 -2 -2 -1 -1 -1 -1 -1 -1 -1 -0 0 0 0 -0 -1 -1 -1 -1 -1 -1 -1 -1 -1 -1 -1 -1 -1 0 0 1 0 0 0 0 0 0 1 1 1 2 2 2 2 1 1 1 0 -1 -2 -2 -1 0 2 2 1 -1 -1 -1 1 1 1 -1 -2 -2 -2
-0 -1 -2 -2 -2 -2 -2 -2 -2 -2 -2 -2 -2 -2 -3 -2 -2 -2 -2 -1 -1 -1 -1 -0 -0 -1 0 -0 -1 -1 -1 -1 -1 -1 -1 -2 -2 -2 -2 -2 -1 -1 -1 -1 -1 -1 -1 -0 -0 -0 -0 -0 -1 -1 -2 -2 -2 -2 -2 -2 -2 -2 -2 -2 -2 -2 -1 -1 -0 0 0 0 0 0 0 1 1 1 1 1 1 1 0 0 -0 -1 -2 -2 -2 -1 0 0 -1 -1 -2 -0 1 1 -1 -2 -2 -0 0
-1 -1 -3 -3 -3 -3 -2 -2 -2 -2 -2 -2 -2 -2 -3 -3 -3 -2 -2 -2 -2 -1 -1 -1 -0 -0 0 0 -0 -0 -0 -1 -1 -1 -1 -1 -2 -2 -2 -2 -1 -1 -1 -1 -1 -1 -1 -1 -0 -0 -0 -1 -1 -1 -2 -2 -3 -3 -3 -3 -3 -3 -3 -3 -3 -2 -2 -2 -1 0 0 0 0 0 0 -0 -1 -1 -1 -0 -1 -1 -0 -1 -1 -1 -2 -2 -2 -2 -2 -2 -2 -1 0 1 1 -1 -2 -1 1 2 3
-2 -2 -4 -3 -3 -2 -3 -2 -3 -3 -3 -3 -2 -2 -3 -3 -3 -2 -2 -2 -2 -1 -1 -1 -1 -0 0 0 0 -0 -1 -1 -1 -1 -1 -1 -2 -2 -2 -2 -2 -1 -1 -1 -1 -1 -1 -0 0 0 0 0 -0 -1 -1 -2 -2 -2 -2 -3 -3 -3 -3 -3 -2 -2 -2 -2 -2 -1 -0 -0 -0 -0 -0 -1 -1 -1 -1 -1 -1 -1 -1 -1 -1 -1 -2 -2 -2 -2 -4 -3 -1 0 1 2 2 2 1 1 2 3 2
-3 -3 -3 -3 -2 -2 -2 -2 -2 -3 -3 -3 -3 -2 -2 -3 -3 -2 -2 -2 -2 -2 -1 -1 -1 -0 -0 0 -0 -1 -1 -1 -1 -1 -1 -1 -1 -1 -2 -2 -2 -1 -1 -1 -1 -0 0 0 0 1 1 1 1 0 0 -0 -1 -1 -2 -2 -2 -2 -2 -2 -2 -2 -2 -2 -2 -1 -1 -1 -0 -0 -0 0 -0 -1 -1 -1 -1 -0 -0 -1 -1 -1 -1 -1 -2 -3 -5 -3 -2 -1 0 1 1 1 1 1 1 1 1
-4 -4 -2 -2 -2 -2 -2 -2 -2 -2 -2 -2 -2 -2 -2 -2 -2 -2 -1 -2 -2 -2 -1 -1 -1 -0 -0 -0 -0 -1 -1 -1 -1 -1 -1 -1 -0 -0 -1 -1 -2 -2 -1 -1 -1 -1 -0 0 1 1 1 1 1 1 1 1 0 -0 -0 -1 -1 -1 -1 -1 -1 -0 -0 -1 -1 -1 -1 -1 -1 -0 -0 0 0 0 -0 -0 0 0 -0 0 1 1 0 -1 -2 -4 -4 -3 -3 -2 -1 0 0 -0 -1 -1 -1 -1 -1
-4 -3 -2 -1 -1 -1 -1 -1 -1 -1 -1 -1 -2 -2 -2 -2 -1 -1 -1 -1 -1 -1 -1 -1 -1 -0 0 -0 -0 -1 -1 -1 -1 -1 -1 -1 0 0 0 -0 -1 -1 -1 -1 -1 -1 -1 0 0 1 1 1 1 2 2 1 1 0 0 0 0 0 0 0 0 1 1 0 0 -0 -1 -0 -0 0 0 1 1 0 0 0 0 0 -0 0 0 1 0 -1 -2 -2 -2 -3 -3 -2 -0 1 1 0 -1 -2 -3 -3 -2
-3 -2 -1 -1 -1 -1 -1 -1 -0 0 0 -0 -1 -1 -2 -1 -1 -0 -0 -1 -1 -1 -1 -1 -1 -0 0 0 0 -0 -1 -1 -1 -1 -1 -1 0 0 1 0 -0 -1 -0 -1 -1 -1 -0 0 0 0 1 1 1 1 2 1 1 1 1 1 1 1 1 1 1 2 1 1 1 1 0 0 1 1 1 1 1 1 0 1 1 1 0 -0 0 0 0 -0 -1 -1 -2 -2 -2 -2 0 2 2 2 0 -2 -2 -3 -2
-1 -1 -0 -1 -1 -1 -1 0 0 0 0 -1 -1 -1 -1 -0 -0 -0 0 -0 -0 -1 -1 -1 -1 -0 0 0 0 0 -1 -1 -1 -1 -1 -1 -0 0 0 1 0 0 0 0 0 -0 0 0 0 0 0 0 0 1 1 1 1 1 1 1 1 1 1 1 1 2 2 1 1 1 1 1 1 1 1 1 1 1 0 1 1 1 0 0 1 1 1 -0 -1 -2 -3 -3 -3 -2 -0 1 2 1 1 -1 -1 -1 -0
0 0 -0 0 0 -0 -0 0 0 0 -0 -1 -1 -1 -1 -0 0 -0 -0 -0 -1 -1 -1 -1 -1 -0 0 -0 -0 -0 -0 -1 -1 -1 -1 -1 -1 -1 -0 0 -0 -0 0 0 0 0 0 0 0 -0 -1 -1 -1 -0 0 0 0 0 1 1 1 0 0 0 1 1 1 1 1 1 1 1 1 1 1 1 1 1 0 0 1 1 0 1 1 2 1 0 -1 -2 -2 -3 -3 -2 -1 -0 -0 -0 0 -0 -0 0 1
0 0 0 0 1 0 0 1 0 -0 -1 -1 -1 -2 -1 -1 -1 -0 -1 -1 -1 -1 -1 -1 -1 -1 -0 -0 -0 -1 -0 -1 -1 -1 -2 -2 -1 -1 -2 -2 -1 -1 -1 -0 -0 -0 0 0 -0 -1 -1 -1 -1 -1 -1 -0 0 0 0 0 0 0 -0 -0 0 1 1 1 1 1 1 1 1 1 1 2 1 1 -0 0 1 1 1 1 2 2 2 2 1 0 0 -1 -1 -1 -0 -1 -1 -1 -1 0 1 2 2
-0 -0 0 0 0 1 1 1 0 -0 -1 -1 -1 -2 -2 -1 -1 -1 -1 -1 -1 -1 -1 -1 -1 -0 0 0 -0 -1 -1 -1 -1 -1 -2 -2 -2 -2 -2 -2 -2 -2 -2 -1 -1 -1 -0 -0 -1 -1 -1 -1 -1 -1 -1 -0 -0 -0 0 -0 -0 -1 -1 -0 0 0 1 1 1 1 1 1 1 1 1 2 2 1 0 1 1 1 2 2 2 3 3 2 2 2 1 1 1 1 1 1 0 -0 -1 0 1 2 3
0 0 0 0 0 0 1 0 0 0 -1 -1 -1 -1 -2 -2 -1 -1 -1 -1 -0 -0 -0 0 0 0 0 0 0 -0 -1 -1 -1 -1 -1 -2 -2 -2 -2 -3 -3 -2 -2 -2 -1 -1 -0 -0 -0 -1 -1 -1 -1 -1 -1 -0 -0 0 0 0 -0 -1 -1 -0 0 1 1 1 1 1 0 1 1 1 2 2 2 2 1 1 1 2 2 3 3 3 3 2 2 2 1 1 1 1 1 1 1 1 0 1 1 2 3
0 0 0 0 0 0 0 0 0 0 -0 -1 -1 -1 -1 -2 -1 -1 -1 -1 -0 0 0 0 1 1 0 0 0 -0 -1 -1 -1 -1 -1 -1 -2 -2 -1 -2 -2 -2 -1 -1 -1 -0 0 0 -0 -0 -0 -1 -0 0 0 0 0 0 0 0 0 0 0 -0 0 1 1 1 1 1 1 1 1 2 2 2 3 2 2 1 1 1 2 2 3 3 2 2 1 1 1 1 1 0 0 0 0 0 0 0 0 1 2
0 0 1 1 0 0 0 0 0 0 -0 -0 -1 -1 -1 -1 -1 -1 -1 -1 -1 -1 -1 0 0 1 1 1 1 0 -0 -0 -1 -1 -2 -2 -2 -1 -1 -1 -1 -1 -1 -0 0 0 0 0 0 0 0 0 0 0 0 1 1 1 1 1 1 1 0 0 0 1 1 2 2 2 2 2 2 2 2 3 2 2 2 1 1 1 1 2 3 3 2 2 1 1 1 1 0 0 -0 -0 -0 -0 -0 -0 -1 -0 0
0 0 0 0 0 0 0 0 0 0 0 -0 -1 -1 -1 -1 -1 -1 -0 -0 -1 -1 -1 -1 -1 -0 1 1 1 1 0 1 0 -1 -2 -2 -2 -1 -1 -1 -1 -1 -0 0 1 1 1 0 0 0 0 0 0 1 0 1 1 1 1 1 1 1 1 1 1 1 1 1 1 2 2 2 2 2 2 2 2 2 2 1 1 0 0 1 2 2 2 2 2 1 1 0 -0 -1 -1 -1 -1 -1 -1 -1 -1 -2 -2
-0 -0 -0 0 1 1 1 1 0 0 0 -0 -1 -1 -1 -1 -1 -1 0 0 -0 -1 -0 -1 -2 -1 0 1 1 1 1 1 1 0 -0 -0 -1 -1 -2 -1 -1 -1 -0 0 1 1 1 0 0 0 -0 0 0 1 1 1 1 1 1 2 2 2 2 1 1 1 1 1 1 1 2 2 2 2 2 2 2 2 1 1 1 0 0 0 0 1 1 2 2 1 1 1 -0 -1 -2 -1 -1 -1 -1 -1 -2 -2 -2
-0 0 -0 0 0 1 1 1 0 0 0 -0 -1 -1 -2 -1 -1 -2 -1 -0 -0 -0 0 0 -1 -1 -1 0 1 1 -0 1 2 1 0 1 0 -1 -1 -1 -1 -1 -0 0 1 1 1 0 0 -0 0 0 1 1 1 1 1 1 1 2 2 2 2 2 1 1 1 1 1 1 1 1 2 2 2 2 2 1 1 1 1 1 0 -0 -0 -0 0 1 1 1 1 1 0 -1 -1 -1 -1 -1 -1 -1 -2 -2 -2
-1 -0 0 0 0 0 0 0 0 -0 -1 -1 -2 -2 -2 -2 -2 -2 -2 -1 -1 -1 0 1 1 1 -1 0 1 1 -1 0 1 1 0 1 1 0 -1 -1 -0 -0 0 1 1 1 1 0 0 0 0 0 1 1 1 1 1 1 1 2 2 2 2 2 2 1 1 1 0 0 0 1 1 2 2 2 2 2 2 1 1 1 1 1 0 -0 -0 -0 0 0 0 0 -0 -1 -1 -0 -1 -1 -1 -1 -1 -2 -2
-0 0 0 0 0 -0 -0 -1 -1 -1 -1 -2 -2 -2 -2 -2 -2 -2 -2 -2 -1 -1 -0 1 2 2 2 1 1 1 0 -0 0 1 1 0 0 0 0 -0 -0 -0 0 1 2 2 1 1 0 0 -0 0 1 1 1 1 1 1 1 1 1 2 2 2 2 2 1 1 1 0 0 0 1 1 1 1 1 1 1 1 1 1 1 1 1 1 0 0 0 0 0 -1 -1 -1 -1 -1 -1 -1 -0 0 -0 -1 -1
0 0 1 0 0 -1 -1 -1 -1 -1 -2 -2 -2 -2 -2 -2 -2 -2 -1 -1 -1 -1 -1 1 2 3 3 2 2 1 1 -0 -1 0 1 1 0 0 1 0 -0 -0 0 2 2 2 2 1 0 0 0 0 0 0 0 1 1 1 1 1 1 1 2 2 2 2 2 1 1 0 0 0 0 0 1 1 1 1 1 0 1 1 1 1 1 1 1 1 1 1 1 0 -0 -0 -0 0 0 1 1 1 1 1 1
0 0 1 0 -0 -1 -1 -1 -1 -1 -2 -2 -2 -2 -1 -1 -1 -1 -1 -1 -0 -1 -2 -0 2 3 3 3 2 2 2 0 -1 -1 0 0 0 0 1 0 0 -0 -0 1 2 3 3 2 1 0 0 1 0 0 0 0 0 0 0 0 1 1 1 2 2 2 2 2 1 1 1 0 0 -0 0 0 0 0 0 0 0 0 0 0 0 0 1 1 1 1 1 1 1 1 1 1 1 2 2 2 2 2 2
0 0 0 -0 -0 -1 -1 -1 -1 -1 -1 -1 -1 -1 -1 -1 -1 -0 -0 -0 0 0 -1 -1 0 3 4 3 3 2 1 1 0 0 -0 -0 0 0 0 0 -0 -0 -1 0 1 3 3 2 1 1 0 1 1 1 0 0 -0 0 0 0 0 0 1 1 1 2 1 1 1 1 1 0 -0 -0 -0 -1 -1 -1 -1 -1 -1 -1 -0 0 0 0 0 0 1 1 1 1 0 1 1 1 2 2 2 2 2 2 2
0 0 0 -0 -0 -0 -1 -1 -1 -1 -1 -1 -1 -1 -1 -0 -0 0 -0 -1 -0 0 0 -1 -1 1 3 3 3 3 2 1 1 1 0 0 0 0 0 -0 -0 -0 -1 -1 0 2 3 2 2 1 0 1 1 1 1 0 -0 -0 0 -0 0 1 1 0 1 1 1 1 0 0 0 0 -0 -1 -1 -1 -1 -1 -2 -2 -2 -2 -1 -1 -0 0 0 0 1 1 0 0 0 0 0 1 1 2 2 2 2 2 2
0 1 0 0 0 0 0 -0 -0 -0 -0 -1 -1 -0 -0 -0 0 0 0 -0 -0 -0 0 -0 -1 -1 0 2 3 3 2 2 2 1 0 0 0 1 0 0 -0 -0 -1 -1 -1 0 2 2 1 0 0 0 1 1 1 0 -0 -0 -0 -1 -1 0 0 -0 0 0 0 0 0 0 0 0 -0 -0 -0 -0 -0 -1 -1 -2 -2 -2 -2 -1 -1 -0 -0 0 0 0 0 0 0 0 0 0 1 1 2 2 2 2 2
1 1 1 1 1 0 -0 -0 -0 -0 -0 -0 0 0 0 0 0 0 0 0 0 -1 -1 0 -1 -2 -2 -1 1 2 3 2 2 2 1 0 -0 0 0 1 0 -1 -1 -1 -1 -1 1 1 -0 -1 -1 -0 0 0 1 0 0 -0 -1 -1 -1 -2 -2 -1 -1 -1 0 0 -0 -0 -0 0 0 0 0 0 1 0 0 -1 -1 -2 -2 -2 -2 -1 -1 -1 -1 -1 -1 -1 -1 -1 -1 -1 -0 0 0 0 0 0 0
1 0 1 1 1 0 -0 -0 -0 -0 -0 0 0 1 0 1 1 0 0 1 0 -0 -1 -0 0 -0 -2 -2 -1 1 2 2 1 1 2 2 0 -1 -2 -0 0 -1 -2 -2 -2 -1 -0 -0 -1 -2 -3 -2 -2 -1 -0 -0 -1 -1 -1 -1 -2 -2 -3 -2 -2 -2 -1 -1 -1 -1 -1 -1 -0 0 0 0 0 0 0 0 -0 -1 -2 -2 -2 -3 -2 -2 -2 -2 -2 -2 -2 -2 -2 -2 -2 -2 -2 -2 -2 -2 -2
1 1 1 1 1 0 -0 -0 -0 0 0 0 1 1 1 1 1 1 0 0 0 0 -0 -1 -0 1 1 -1 -1 -0 1 2 2 1 1 1 2 2 -0 -1 -1 -1 -2 -3 -2 -1 0 0 -1 -3 -5 -4 -3 -2 -2 -2 -2 -2 -2 -2 -2 -3 -4 -3 -3 -3 -2 -3 -3 -3 -2 -2 -2 -1 -1 -1 -1 -1 -1 -1 -1 -1 -2 -2 -3 -3 -3 -4 -4 -4 -4 -4 -4 -4 -4 -4 -4 -4 -4 -4 -4 -4 -4
1 1 1 0 0 0 0 0 0 0 1 0 1 1 2 1 1 1 1 1 0 0 0 -1 -2 -1 2 1 -1 -1 2 2 3 3 2 -1 1 3 4 2 2 1 -1 -2 -4 -3 1 2 1 -1 -4 -5 -5 -4 -4 -4 -4 -3 -3 -2 -2 -3 -3 -4 -4 -4 -3 -4 -5 -5 -5 -5 -4 -3 -2 -2 -2 -2 -2 -2 -2 -2 -2 -2 -2 -2 -3 -3 -4 -4 -4 -4 -4 -4 -4 -4 -4 -4 -4 -4 -4 -4 -4
1 1 1 0 0 0 0 0 0 0 0 1 1 1 1 1 1 1 1 1 1 0 1 -0 -2 -3 -2 0 0 -1 1 2 3 4 4 1 -0 1 3 5 4 4 4 4 -1 -4 -2 0 1 1 -1 -4 -5 -5 -6 -6 -6 -6 -5 -4 -4 -4 -3 -3 -3 -2 -2 -4 -5 -5 -6 -6 -5 -5 -4 -3 -3 -3 -3 -2 -2 -2 -2 -2 -1 -1 -1 -2 -2 -2 -2 -3 -3 -3 -3 -3 -2 -2 -2 -2 -2 -3 -3
1 1 1 0 0 -0 0 -0 0 0 1 1 1 0 0 1 1 1 1 1 1 0 1 1 -0 -2 -4 -3 -2 -1 -2 1 2 3 4 3 2 0 -0 4 4 3 4 9 6 1 1 2 2 1 1 0 -1 -3 -4 -5 -6 -6 -5 -5 -5 -5 -4 -3 -2 -2 -1 -2 -3 -4 -4 -4 -5 -4 -4 -4 -3 -3 -3 -3 -3 -3 -2 -2 -1 -1 -0 -0 -1 -1 -1 -1 -1 -2 -2 -1 -1 -1 -1 -1 -0 -0 -0
1 1 1 0 0 -0 -0 -1 -1 -0 0 1 1 0 -0 0 0 0 0 0 0 0 0 0 0 0 -2 -4 -4 -3 -4 -2 0 1 1 3 3 2 -2 -1 1 2 2 7 7 5 2 8 9 8 3 4 4 3 0 0 -2 -3 -3 -4 -4 -5 -4 -3 -2 -1 -0 -1 -1 -1 -1 -2 -2 -2 -3 -3 -3 -2 -3 -3 -3 -3 -3 -2 -2 -1 -1 0 0 0 0 0 -0 -1 -1 -1 -0 -0 0 0 1 1 0
1 1 1 0 0 0 -0 -1 -1 -1 -0 0 1 0 -0 -1 -1 -1 -1 -0 -0 -0 0 -0 0 0 0 -2 -4 -5 -5 -4 -2 -0 -0 -1 2 4 1 -2 -3 -2 -2 2 4 4 1 5 10 13 9 8 8 7 4 4 3 2 1 0 -1 -2 -2 -1 -1 -1 -0 -0 0 1 2 1 1 0 0 -1 -1 -1 -1 -2 -2 -2 -2 -2 -2 -1 -0 0 0 1 1 1 1 0 0 0 0 0 0 1 1 1 0
1 0 0 0 0 -0 -1 -0 -0 -0 -0 0 0 0 -1 -1 -1 -1 -1 -1 -1 -0 0 -0 -1 -1 1 -0 -2 -4 -5 -6 -5 -3 -1 -3 -2 -0 3 1 -2 -4 -5 -5 -3 -1 0 2 5 8 9 13 12 9 5 6 6 4 3 2 2 2 1 1 2 2 1 1 1 2 2 2 3 3 3 2 2 1 1 0 -1 -1 -1 -1 -1 -0 0 0 0 1 1 2 2 2 2 2 1 1 2 2 2 2 1
0 0 0 0 0 -0 -1 -0 -0 -0 0 0 0 0 -1 -1 -1 -1 -1 -1 -1 -0 0 0 -1 -2 -1 0 -0 -2 -4 -6 -7 -6 -2 -3 -4 -5 -2 0 1 1 1 -4 -5 -5 -6 -1 3 4 1 13 16 13 7 8 7 6 5 3 3 3 3 3 3 3 2 2 3 3 2 3 3 3 3 4 4 3 3 2 1 0 0 -0 -1 -0 -0 -0 0 0 0 1 2 3 3 3 3 3 3 3 3 2 1
0 0 -0 -0 -0 -0 0 0 0 0 -0 0 0 -0 -1 -1 -1 -1 -1 -1 -1 -1 -1 -1 -1 -1 -2 -1 -1 -1 -2 -4 -5 -6 -6 -4 -4 -4 -5 -4 -3 -2 1 -1 0 -1 -5 -5 -2 0 -0 7 13 16 13 9 7 6 6 4 3 3 3 3 3 3 2 3 3 3 3 4 4 3 3 5 5 4 4 3 3 2 1 -0 -1 -1 -1 -1 -1 -1 -1 0 1 2 3 3 3 3 4 4 3 3 2
-0 -0 -1 -1 -0 -0 -0 -0 0 0 -0 -0 -0 -1 -1 -1 -1 -1 -1 -1 -2 -2 -1 -1 -1 -1 -2 -2 -1 -1 -2 -2 -2 -3 -4 -5 -5 -5 -3 -5 -6 -6 -5 -5 -3 -1 0 -2 -6 -7 -2 1 6 12 20 15 10 7 7 6 5 4 4 4 3 3 2 3 3 3 3 4 4 4 3 4 4 4 4 4 3 2 0 -0 -1 -2 -2 -2 -2 -2 -2 -2 -0 1 1 1 2 3 3 3 3 2 2
-0 -0 -1 -1 -0 -0 0 0 0 -0 -0 -1 -1 -1 -1 -2 -2 -1 -1 -2 -2 -2 -1 -2 -2 -2 -1 -1 -1 -1 -1 -2 -2 -2 1 -2 -5 -6 -2 -2 -4 -5 -5 -7 -7 -7 -5 -4 -5 -6 -7 -5 -2 4 14 18 16 12 9 8 7 6 7 6 4 3 3 3 3 3 3 3 3 4 3 3 3 4 4 3 3 2 1 -1 -1 -2 -3 -3 -3 -3 -3 -2 -1 -1 -1 -1 0 1 1 2 2 1 1
-1 -1 -0 -0 -0 0 0 0 0 -0 -1 -1 -1 -1 -1 -2 -2 -2 -2 -2 -2 -2 -2 -2 -2 -2 -2 -1 -0 -0 -1 -1 -2 -2 0 1 -1 -4 -3 -2 -2 -4 -4 -5 -6 -7 -7 -9 -8 -6 -6 -9 -8 -4 3 12 16 15 11 10 9 8 8 7 6 4 4 4 4 4 4 3 3 4 4 3 3 4 4 4 3 3 2 0 -1 -2 -3 -3 -3 -3 -2 -2 -1 -1 -1 -2 -2 -1 -1 0 1 1 0
Height
5835 5835 5835 5835 5835 5835 5835 5835 5834 5834 5834 5834 5833 5833 5832 5832 5832 5831 5831 5831 5830 5830 5829 5829 5829 5829 5828 5828 5827 5827 5827 5826 5826 5826 5825 5825 5825 5824 5824 5823 5823 5823 5822 5822 5822 5822 5821 5821 5821 5820 5820 5819 5819 5819 5818 5818 5818 5817 5817 5817 5817 5817 5816 5816 5816 5816 5815 5815 5815 5815 5814 5814 5814 5814 5814 5814 5814 5814 5814 5814 5814 5814 5813 5813 5813 5813 5814 5814 5814 5814 5814 5814 5813 5813 5813 5813 5813 5813 5813 5813 5813 5813 5814
5834 5834 5834 5834 5834 5834 5833 5833 5833 5833 5833 5832 5832 5832 5832 5831 5831 5830 5830 5829 5829 5828 5828 5828 5827 5827 5827 5827 5826 5826 5825 5825 5825 5824 5824 5823 5823 5823 5822 5822 5822 5821 5821 5820 5820 5820 5819 5819 5819 5818 5818 5818 5817 5817 5817 5817 5816 5816 5816 5815 5815 5815 5815 5814 5814 5814 5814 5813 5813 5813 5813 5813 5812 5812 5812 5812 5812 5813 5812 5812 5812 5812 5812 5812 5812 5812 5812 5812 5812 5812 5812 5812 5812 5812 5812 5812 5812 5812 5811 5811 5811 5811 5812
5833 5833 5833 5832 5832 5832 5832 5832 5832 5832 5831 5831 5831 5830 5830 5830 5829 5829 5828 5828 5827 5827 5827 5827 5826 5826 5825 5825 5825 5824 5824 5823 5823 5823 5822 5822 5822 5821 5821 5820 5820 5819 5819 5819 5818 5818 5818 5817 5817 5817 5816 5816 5816 5816 5815 5815 5815 5814 5814 5814 5813 5813 5813 5813 5812 5812 5812 5812 5812 5812 5811 5811 5811 5811 5811 5811 5811 5811 5811 5811 5810 5810 5810 5810 5810 5809 5809 5809 5809 5810 5810 5810 5810 5810 5810 5810 5810 5809 5809 5809 5809 5809 5809
5832 5832 5832 5831 5831 5831 5831 5831 5831 5830 5830 5830 5829 5829 5829 5828 5828 5827 5827 5827 5826 5826 5825 5825 5825 5824 5824 5823 5823 5823 5822 5822 5822 5821 5821 5820 5820 5819 5819 5818 5818 5818 5817 5817 5817 5817 5816 5816 5815 5815 5815 5814 5814 5814 5814 5813 5813 5813 5813 5812 5812 5812 5812 5811 5811 5811 5811 5810 5810 5810 5810 5810 5810 5809 5809 5809 5809 5809 5809 5809 5808 5808 5808 5808 5807 5807 5807 5807 5807 5807 5807 5807 5807 5808 5808 5807 5807 5807 5807 5807 5807 5807 5807
5831 5831 5831 5830 5830 5830 5830 5829 5829 5829 5829 5828 5828 5827 5827 5827 5827 5826 5826 5825 5825 5824 5824 5824 5823 5823 5822 5822 5822 5821 5821 5820 5820 5820 5819 5819 5818 5818 5817 5817 5817 5816 5816 5816 5815 5815 5815 5814 5814 5813 5813 5813 5812 5812 5812 5812 5812 5812 5811 5811 5811 5811 5810 5810 5810 5809 5809 5809 5809 5808 5808 5808 5808 5808 5807 5807 5807 5807 5807 5807 5806 5806 5806 5805 5805 5805 5805 5805 5805 5805 5805 5805 5805 5805 5806 5806 5805 5805 5805 5805 5805 5805 5805
5830 5830 5830 5829 5829 5829 5829 5828 5828 5828 5827 5827 5827 5826 5826 5826 5825 5825 5824 5824 5823 5823 5822 5822 5822 5821 5821 5820 5820 5820 5819 5819 5818 5818 5817 5817 5817 5816 5816 5815 5815 5814 5814 5814 5814 5813 5813 5813 5812 5812 5812 5812 5811 5811 5811 5810 5810 5810 5810 5810 5809 5809 5809 5809 5808 5808 5808 5807 5807 5807 5807 5807 5806 5806 5806 5806 5805 5805 5804 5804 5804 5804 5804 5803 5803 5803 5803 5803 5803 5803 5803 5803 5803 5803 5803 5803 5803 5803 5803 5803 5802 5802 5802
5829 5829 5829 5828 5828 5828 5828 5827 5827 5827 5826 5826 5826 5825 5825 5824 5824 5823 5823 5822 5822 5822 5821 5821 5820 5820 5819 5819 5818 5818 5817 5817 5817 5816 5816 5815 5815 5814 5814 5814 5813 5813 5813 5812 5812 5812 5812 5811 5811 5811 5810 5810 5810 5809 5809 5809 5808 5808 5808 5808 5808 5807 5807 5807 5807 5807 5806 5806 5806 5805 5805 5805 5805 5804 5804 5804 5803 5803 5802 5802 5802 5802 5802 5802 5802 5801 5801 5801 5801 5801 5800 5800 5800 5800 5800 5800 5801 5801 5801 5800 5800 5800 5800
5829 5828 5828 5828 5827 5827 5827 5827 5826 5826 5825 5825 5824 5824 5823 5823 5822 5822 5822 5821 5821 5820 5820 5819 5819 5818 5818 5817 5817 5817 5816 5816 5815 5815 5814 5814 5813 5813 5812 5812 5812 5812 5811 5811 5811 5810 5810 5809 5809 5809 5808 5808 5808 5807 5807 5807 5807 5807 5806 5806 5806 5806 5806 5805 5805 5805 5804 5804 5804 5803 5803 5803 5802 5802 5802 5802 5802 5801 5801 5800 5800 5800 5800 5799 5799 5799 5799 5799 5798 5798 5798 5798 5797 5797 5797 5797 5797 5797 5797 5797 5797 5797 5797
5828 5827 5827 5827 5827 5826 5826 5826 5825 5825 5824 5824 5823 5823 5822 5822 5821 5821 5820 5820 5819 5819 5818 5818 5817 5817 5817 5816 5816 5815 5815 5814 5814 5813 5813 5812 5812 5812 5811 5811 5810 5810 5810 5809 5809 5808 5808 5807 5807 5807 5807 5806 5806 5806 5805 5805 5805 5805 5804 5804 5804 5804 5804 5803 5803 5803 5803 5802 5802 5802 5801 5801 5801 5800 5800 5800 5799 5799 5799 5798 5798 5798 5797 5797 5797 5797 5797 5796 5796 5796 5796 5795 5795 5795 5795 5794 5794 5794 5794 5794 5794 5794 5794
5827 5827 5827 5826 5826 5826 5825 5825 5824 5824 5823 5823 5822 5822 5821 5821 5820 5820 5819 5819 5818 5818 5817 5817 5816 5816 5815 5815 5814 5814 5813 5813 5812 5812 5812 5811 5811 5810 5810 5809 5809 5808 5808 5807 5807 5807 5806 5806 5805 5805 5805 5804 5804 5804 5803 5803 5803 5803 5802 5802 5802 5802 5802 5802 5801 5801 5801 5800 5800 5800 5799 5799 5798 5798 5798 5797 5797 5797 5797 5796 5796 5796 5795 5795 5795 5794 5794 5794 5793 5793 5793 5792 5792 5792 5792 5791 5791 5791 5791 5791 5790 5790 5790
5827 5826 5826 5825 5825 5825 5824 5824 5823 5823 5822 5822 5822 5821 5820 5820 5819 5819 5818 5817 5817 5817 5816 5816 5815 5815 5814 5814 5813 5813 5812 5812 5811 5811 5810 5810 5809 5809 5808 5808 5807 5807 5806 5806 5805 5805 5804 5804 5803 5803 5802 5802 5802 5802 5801 5801 5801 5801 5800 5800 5800 5800 5799 5799 5799 5799 5798 5798 5798 5797 5797 5797 5797 5796 5796 5795 5795 5795 5794 5794 5794 5793 5793 5792 5792 5792 5791 5791 5791 5790 5790 5789 5789 5789 5788 5788 5787 5787 5787 5787 5787 5787 5787
5826 5825 5825 5825 5824 5824 5823 5823 5822 5822 5822 5821 5821 5820 5819 5819 5818 5817 5817 5817 5816 5815 5815 5814 5814 5813 5813 5812 5812 5812 5811 5811 5810 5810 5809 5808 5808 5807 5807 5806 5806 5805 5805 5804 5803 5803 5802 5802 5801 5801 5801 5800 5800 5799 5799 5799 5798 5798 5798 5798 5798 5797 5797 5797 5797 5797 5796 5796 5796 5795 5795 5795 5794 5794 5793 5793 5792 5792 5792 5792 5791 5791 5790 5790 5790 5789 5789 5788 5788 5787 5787 5786 5786 5786 5785 5785 5784 5784 5784 5783 5783 5783 5782
5825 5824 5824 5824 5823 5823 5822 5822 5822 5821 5820 5820 5819 5819 5818 5817 5817 5817 5816 5815 5815 5814 5813 5813 5812 5812 5812 5811 5811 5810 5810 5809 5809 5808 5807 5807 5807 5806 5805 5805 5804 5803 5803 5802 5802 5801 5801 5800 5799 5799 5798 5798 5797 5797 5797 5797 5796 5796 5796 5796 5795 5795 5795 5795 5794 5794 5794 5793 5793 5792 5792 5792 5792 5791 5791 5791 5790 5790 5789 5789 5788 5788 5787 5787 5787 5786 5786 5785 5785 5784 5784 5783 5783 5782 5782 5781 5781 5781 5780 5780 5779 5779 5779
5823 5823 5823 5822 5822 5822 5821 5821 5820 5820 5819 5819 5818 5817 5817 5816 5816 5815 5815 5814 5813 5813 5812 5812 5811 5811 5810 5809 5809 5808 5808 5807 5807 5807 5806 5805 5805 5804 5804 5803 5802 5802 5801 5801 5800 5799 5799 5798 5797 5797 5797 5796 5796 5795 5795 5794 5794 5794 5793 5793 5793 5793 5792 5792 5792 5792 5791 5791 5790 5790 5790 5789 5789 5789 5788 5788 5787 5787 5787 5786 5786 5785 5785 5784 5784 5783 5782 5782 5782 5781 5781 5780 5780 5779 5778 5778 5777 5777 5777 5777 5776 5776 5776
5822 5822 5822 5821 5821 5820 5820 5820 5819 5818 5818 5817 5817 5816 5816 5815 5814 5814 5813 5812 5812 5811 5811 5810 5809 5809 5808 5808 5807 5807 5806 5806 5805 5805 5804 5804 5803 5802 5802 5801 5801 5800 5799 5799 5798 5797 5797 5796 5796 5795 5794 5794 5793 5793 5792 5792 5792 5792 5791 5791 5791 5790 5790 5790 5789 5789 5789 5788 5788 5787 5787 5787 5786 5786 5786 5785 5785 5784 5784 5783 5783 5782 5782 5781 5781 5780 5779 5779 5778 5777 5777 5777 5776 5776 5775 5775 5774 5774 5774 5774 5773 5773 5773
5821 5821 5820 5820 5819 5819 5819 5818 5818 5817 5817 5816 5815 5815 5814 5813 5813 5812 5812 5811 5811 5810 5809 5808 5808 5807 5807 5806 5806 5805 5805 5804 5804 5803 5802 5802 5802 5801 5800 5800 5799 5798 5797 5797 5796 5796 5795 5794 5794 5793 5792 5792 5792 5791 5791 5790 5790 5789 5789 5788 5788 5788 5787 5787 5787 5786 5786 5786 5785 5785 5784 5784 5783 5783 5782 5782 5782 5781 5781 5780 5780 5780 5779 5778 5778 5777 5776 5776 5775 5774 5774 5774 5773 5773 5773 5772 5772 5772 5772 5771 5771 5771 5771
5820 5819 5819 5818 5818 5817 5817 5817 5816 5816 5815 5814 5814 5813 5812 5812 5811 5811 5810 5809 5809 5808 5807 5807 5806 5806 5805 5805 5804 5803 5803 5802 5802 5801 5801 5800 5800 5799 5798 5798 5797 5796 5796 5795 5794 5794 5793 5792 5792 5791 5790 5790 5789 5789 5788 5788 5787 5787 5787 5786 5786 5785 5785 5785 5784 5784 5783 5783 5782 5782 5781 5781 5781 5780 5780 5779 5779 5778 5777 5777 5777 5777 5776 5776 5775 5774 5773 5772 5772 5772 5771 5771 5771 5771 5770 5770 5770 5770 5769 5769 5769 5768 5768
5818 5818 5817 5817 5817 5816 5816 5815 5815 5814 5813 5813 5812 5812 5811 5810 5809 5809 5808 5807 5807 5806 5806 5805 5805 5804 5803 5803 5802 5802 5801 5801 5800 5800 5799 5798 5798 5797 5797 5796 5795 5794 5794 5793 5792 5792 5791 5790 5790 5789 5788 5788 5787 5787 5786 5786 5785 5785 5784 5784 5783 5783 5782 5782 5782 5781 5781 5780 5780 5779 5779 5778 5778 5777 5777 5776 5776 5775 5775 5774 5774 5773 5773 5772 5772 5771 5770 5770 5769 5769 5769 5768 5768 5768 5767 5767 5767 5767 5767 5767 5766 5766 5766
5817 5816 5816 5815 5815 5815 5814 5814 5813 5812 5812 5811 5810 5810 5809 5808 5807 5807 5806 5806 5805 5804 5804 5803 5803 5802 5802 5801 5801 5800 5799 5799 5798 5798 5797 5797 5796 5795 5795 5794 5793 5792 5792 5791 5790 5790 5789 5788 5787 5787 5786 5786 5785 5785 5784 5783 5783 5782 5782 5781 5781 5781 5780 5780 5779 5779 5778 5777 5777 5777 5776 5776 5775 5774 5774 5773 5773 5772 5772 5772 5771 5771 5770 5770 5769 5768 5768 5767 5767 5767 5766 5766 5766 5766 5765 5765 5765 5765 5764 5764 5764 5764 5764
5815 5815 5814 5814 5813 5813 5812 5812 5812 5811 5810 5809 5809 5808 5807 5807 5806 5805 5804 5804 5803 5803 5802 5802 5801 5801 5800 5799 5799 5798 5798 5797 5797 5796 5795 5795 5794 5793 5793 5792 5791 5790 5790 5789 5788 5787 5787 5786 5786 5785 5784 5784 5783 5782 5782 5781 5781 5780 5779 5779 5778 5778 5777 5777 5777 5776 5776 5775 5775 5774 5773 5773 5772 5772 5771 5771 5770 5770 5769 5769 5768 5768 5767 5767 5767 5766 5765 5765 5765 5764 5764 5764 5763 5763 5763 5763 5762 5762 5762 5762 5762 5762 5762
5814 5813 5813 5812 5812 5812 5811 5810 5810 5809 5808 5807 5807 5806 5805 5805 5804 5803 5802 5802 5801 5801 5800 5800 5799 5799 5798 5797 5797 5797 5796 5795 5795 5794 5793 5793 5792 5791 5791 5790 5789 5788 5788 5787 5786 5786 5785 5784 5784 5783 5782 5782 5781 5780 5780 5779 5778 5778 5777 5777 5776 5776 5775 5775 5774 5774 5773 5773 5772 5772 5771 5771 5770 5770 5769 5768 5768 5767 5767 5767 5766 5766 5765 5765 5764 5763 5763 5762 5762 5762 5762 5762 5761 5761 5761 5760 5760 5760 5759 5759 5759 5759 5759
5812 5812 5811 5811 5810 5810 5809 5809 5808 5807 5806 5805 5805 5804 5803 5802 5802 5801 5801 5800 5799 5799 5798 5798 5797 5797 5796 5796 5795 5795 5794 5793 5793 5792 5791 5791 5790 5789 5788 5788 5787 5786 5786 5785 5784 5784 5783 5782 5782 5781 5780 5779 5779 5778 5777 5777 5776 5775 5775 5774 5774 5773 5773 5772 5772 5772 5771 5771 5770 5769 5769 5768 5768 5767 5767 5766 5766 5765 5765 5764 5764 5763 5763 5762 5762 5761 5761 5760 5760 5760 5760 5759 5759 5759 5758 5758 5757 5757 5757 5757 5756 5756 5756
5811 5811 5810 5810 5809 5808 5808 5807 5806 5805 5804 5803 5802 5802 5801 5800 5800 5799 5798 5798 5797 5797 5796 5796 5795 5795 5794 5794 5793 5792 5792 5791 5791 5790 5789 5789 5788 5787 5787 5786 5785 5784 5783 5783 5782 5782 5781 5780 5779 5779 5778 5777 5777 5776 5775 5774 5774 5773 5772 5772 5771 5771 5770 5770 5769 5769 5768 5768 5767 5767 5766 5766 5765 5765 5764 5764 5763 5763 5762 5762 5762 5761 5761 5760 5759 5759 5758 5758 5757 5757 5757 5757 5756 5756 5756 5755 5755 5755 5754 5754 5754 5753 5753
5810 5809 5809 5808 5808 5807 5806 5805 5804 5803 5802 5801 5800 5799 5799 5798 5797 5797 5796 5796 5795 5795 5794 5794 5793 5793 5792 5792 5791 5791 5790 5789 5789 5788 5787 5786 5786 5785 5784 5783 5783 5782 5781 5781 5780 5779 5779 5778 5777 5777 5776 5775 5774 5773 5772 5772 5771 5771 5770 5769 5769 5768 5767 5767 5767 5766 5766 5765 5765 5764 5764 5763 5763 5762 5762 5762 5761 5761 5760 5759 5759 5758 5758 5757 5757 5757 5756 5755 5755 5755 5754 5754 5753 5753 5753 5753 5752 5752 5752 5752 5752 5752 5752
5809 5808 5807 5807 5806 5805 5805 5803 5802 5801 5800 5799 5798 5798 5797 5796 5795 5795 5794 5794 5793 5793 5792 5792 5792 5791 5791 5790 5789 5789 5788 5787 5787 5786 5785 5784 5783 5783 5782 5781 5781 5780 5779 5778 5777 5777 5776 5776 5775 5774 5774 5773 5772 5771 5771 5770 5769 5768 5768 5767 5767 5766 5765 5765 5764 5763 5763 5762 5762 5762 5761 5761 5760 5760 5759 5759 5758 5757 5757 5757 5756 5756 5755 5755 5754 5754 5753 5753 5752 5752 5751 5751 5751 5751 5751 5751 5750 5750 5749 5749 5750 5750 5750
5807 5807 5806 5805 5805 5804 5803 5802 5801 5800 5799 5798 5797 5796 5795 5794 5793 5793 5792 5792 5791 5791 5791 5790 5790 5789 5789 5788 5787 5787 5786 5785 5784 5784 5783 5782 5781 5781 5780 5779 5778 5777 5777 5776 5775 5775 5774 5773 5773 5772 5772 5771 5770 5769 5769 5768 5767 5767 5766 5765 5765 5764 5763 5763 5762 5762 5761 5760 5760 5759 5759 5758 5758 5757 5757 5756 5756 5755 5754 5754 5753 5753 5752 5752 5752 5751 5751 5750 5750 5750 5748 5748 5748 5748 5748 5748 5748 5748 5747 5747 5747 5747 5747
5806 5805 5804 5804 5803 5802 5801 5800 5799 5798 5797 5796 5795 5794 5793 5792 5792 5791 5790 5790 5789 5789 5789 5788 5788 5787 5787 5786 5786 5785 5784 5783 5782 5782 5781 5780 5779 5778 5777 5777 5776 5775 5775 5774 5773 5772 5772 5771 5771 5770 5770 5769 5768 5768 5767 5766 5766 5765 5764 5764 5763 5762 5762 5761 5761 5760 5759 5759 5758 5757 5757 5756 5756 5755 5755 5754 5753 5752 5752 5752 5751 5750 5750 5750 5749 5749 5748 5748 5747 5747 5746 5746 5746 5745 5745 5745 5745 5745 5745 5744 5744 5744 5744
5804 5803 5802 5802 5801 5800 5799 5798 5797 5796 5795 5794 5793 5792 5792 5791 5790 5789 5789 5788 5788 5787 5787 5787 5786 5786 5785 5785 5784 5783 5782 5782 5781 5780 5779 5778 5777 5777 5776 5775 5774 5773 5772 5772 5771 5771 5770 5769 5769 5768 5767 5767 5766 5766 5765 5764 5764 5763 5762 5762 5761 5761 5760 5760 5759 5758 5758 5757 5757 5756 5755 5754 5754 5753 5752 5752 5751 5751 5750 5749 5749 5748 5748 5747 5747 5747 5746 5745 5744 5744 5743 5743 5743 5742 5742 5742 5742 5742 5742 5741 5741 5741 5740
5802 5802 5801 5800 5799 5798 5797 5796 5795 5795 5794 5793 5792 5791 5790 5789 5789 5788 5787 5787 5787 5786 5786 5785 5785 5784 5784 5783 5782 5782 5781 5780 5779 5778 5777 5777 5776 5775 5774 5773 5772 5771 5771 5770 5769 5768 5768 5767 5767 5766 5765 5765 5764 5764 5763 5762 5762 5761 5761 5760 5759 5759 5758 5758 5757 5757 5756 5755 5755 5754 5753 5752 5752 5751 5751 5750 5749 5749 5748 5747 5747 5746 5746 5745 5745 5744 5743 5743 5742 5742 5741 5741 5740 5740 5740 5740 5739 5739 5738 5738 5737 5737 5737
5801 5800 5799 5798 5797 5797 5796 5795 5794 5793 5792 5791 5790 5790 5789 5788 5787 5787 5786 5786 5785 5785 5784 5784 5783 5783 5782 5782 5781 5780 5779 5778 5777 5776 5775 5774 5774 5773 5772 5771 5770 5769 5768 5768 5767 5767 5766 5765 5765 5764 5763 5762 5762 5762 5761 5760 5759 5759 5758 5758 5757 5757 5756 5756 5755 5755 5754 5753 5753 5752 5751 5751 5750 5749 5749 5748 5747 5747 5746 5745 5745 5744 5743 5742 5742 5742 5741 5740 5740 5739 5738 5738 5737 5737 5737 5737 5737 5736 5736 5735 5735 5734 5734
5799 5798 5798 5797 5796 5795 5794 5793 5792 5792 5791 5790 5789 5788 5787 5787 5786 5786 5785 5784 5784 5783 5782 5782 5782 5781 5781 5780 5779 5778 5777 5776 5775 5774 5773 5772 5772 5771 5770 5769 5768 5767 5767 5766 5765 5764 5764 5763 5762 5762 5761 5760 5760 5759 5758 5758 5757 5757 5756 5755 5755 5754 5754 5753 5753 5752 5752 5751 5750 5750 5749 5748 5748 5747 5746 5746 5745 5744 5743 5743 5742 5741 5741 5740 5739 5739 5738 5737 5737 5736 5736 5735 5735 5734 5734 5734 5734 5733 5733 5732 5732 5732 5731
5798 5797 5796 5795 5794 5793 5792 5791 5791 5790 5789 5788 5787 5787 5786 5785 5785 5784 5783 5783 5782 5782 5781 5780 5780 5779 5779 5778 5777 5776 5775 5774 5773 5772 5771 5770 5769 5768 5767 5767 5766 5765 5764 5763 5763 5762 5762 5761 5760 5759 5758 5758 5757 5757 5756 5755 5755 5754 5753 5753 5752 5752 5751 5751 5750 5749 5749 5748 5748 5747 5747 5746 5745 5744 5744 5743 5742 5742 5741 5740 5739 5739 5738 5737 5737 5736 5735 5734 5734 5733 5733 5732 5732 5731 5731 5731 5730 5730 5730 5729 5729 5729 5728
5796 5796 5795 5794 5793 5792 5791 5790 5789 5788 5787 5787 5786 5785 5785 5784 5783 5782 5782 5781 5781 5780 5779 5779 5778 5777 5777 5776 5775 5774 5773 5772 5771 5770 5769 5768 5767 5766 5765 5764 5763 5762 5762 5761 5760 5760 5759 5758 5757 5757 5756 5755 5755 5754 5753 5753 5752 5752 5751 5750 5749 5749 5748 5748 5747 5747 5746 5746 5745 5744 5744 5743 5742 5742 5741 5740 5740 5739 5738 5737 5737 5736 5735 5735 5734 5733 5733 5732 5731 5730 5730 5729 5729 5728 5728 5727 5727 5727 5726 5726 5726 5726 5726
5795 5794 5793 5792 5791 5790 5789 5788 5787 5787 5786 5785 5785 5784 5783 5782 5782 5781 5780 5780 5779 5778 5777 5777 5776 5776 5775 5774 5773 5772 5772 5770 5769 5768 5767 5766 5765 5764 5763 5762 5761 5760 5759 5759 5758 5757 5757 5756 5755 5754 5753 5753 5752 5752 5751 5750 5750 5749 5748 5747 5747 5746 5746 5745 5745 5744 5743 5743 5742 5742 5741 5740 5740 5739 5738 5738 5737 5736 5735 5734 5734 5733 5732 5732 5731 5731 5730 5729 5728 5727 5727 5726 5726 5726 5725 5724 5724 5723 5723 5723 5722 5722 5722
5793 5792 5791 5790 5789 5788 5787 5787 5786 5785 5784 5784 5783 5782 5782 5781 5780 5779 5779 5778 5777 5777 5776 5775 5774 5774 5773 5772 5771 5770 5769 5768 5767 5766 5765 5764 5763 5762 5761 5760 5759 5758 5757 5757 5756 5755 5754 5753 5752 5752 5751 5750 5750 5749 5748 5748 5747 5747 5746 5745 5744 5744 5743 5742 5742 5742 5741 5740 5740 5739 5738 5738 5737 5737 5736 5735 5734 5733 5732 5732 5731 5730 5730 5729 5728 5727 5727 5726 5725 5724 5724 5723 5722 5722 5722 5721 5721 5720 5720 5719 5719 5719 5718
5791 5790 5789 5788 5787 5786 5785 5785 5784 5783 5782 5782 5781 5781 5780 5779 5778 5777 5777 5776 5775 5775 5774 5773 5772 5772 5771 5770 5769 5768 5767 5766 5765 5764 5763 5762 5761 5760 5759 5757 5757 5756 5755 5754 5753 5753 5752 5751 5750 5750 5749 5748 5747 5747 5746 5746 5745 5744 5744 5743 5742 5742 5741 5740 5740 5739 5738 5738 5737 5737 5736 5735 5734 5734 5733 5732 5732 5731 5730 5729 5728 5727 5727 5726 5725 5724 5723 5722 5722 5721 5720 5720 5719 5718 5718 5717 5717 5716 5716 5715 5715 5714 5714
5789 5788 5787 5786 5785 5784 5783 5783 5782 5782 5781 5780 5779 5779 5778 5777 5777 5776 5775 5774 5773 5773 5772 5771 5771 5770 5769 5768 5767 5766 5765 5764 5763 5762 5761 5759 5758 5757 5757 5755 5754 5754 5753 5752 5751 5751 5750 5749 5748 5747 5747 5746 5745 5745 5744 5743 5743 5742 5742 5741 5740 5739 5738 5738 5737 5737 5736 5735 5734 5734 5733 5732 5732 5731 5730 5729 5729 5728 5727 5726 5725 5724 5723 5723 5722 5721 5720 5719 5718 5717 5717 5716 5715 5714 5714 5713 5713 5712 5712 5711 5710 5710 5710
5787 5786 5785 5784 5783 5782 5782 5781 5780 5779 5779 5778 5777 5777 5776 5775 5775 5774 5773 5772 5772 5771 5770 5769 5768 5767 5767 5766 5765 5764 5763 5762 5761 5759 5758 5757 5756 5755 5754 5753 5752 5751 5751 5750 5749 5748 5747 5747 5746 5745 5744 5743 5743 5742 5742 5741 5740 5740 5739 5738 5737 5737 5736 5735 5734 5734 5733 5732 5732 5731 5730 5729 5729 5728 5727 5726 5726 5725 5724 5723 5722 5721 5720 5719 5719 5718 5717 5716 5715 5714 5713 5712 5711 5710 5710 5709 5709 5708 5707 5707 5706 5706 5705
5784 5783 5782 5782 5781 5780 5780 5779 5778 5777 5777 5776 5776 5775 5774 5773 5772 5772 5771 5770 5769 5768 5767 5767 5766 5765 5764 5763 5762 5762 5760 5759 5758 5757 5756 5755 5754 5752 5752 5751 5750 5749 5748 5747 5747 5746 5745 5744 5743 5742 5742 5741 5740 5740 5739 5738 5738 5737 5737 5736 5735 5734 5733 5732 5732 5731 5730 5729 5728 5728 5727 5726 5725 5725 5724 5723 5722 5721 5720 5719 5718 5717 5717 5716 5715 5714 5713 5712 5711 5710 5709 5708 5707 5706 5706 5705 5704 5704 5703 5702 5702 5701 5700
5782 5781 5781 5780 5779 5778 5778 5777 5776 5776 5775 5774 5773 5773 5772 5771 5771 5770 5769 5768 5767 5767 5765 5764 5764 5763 5762 5761 5760 5759 5758 5757 5756 5755 5753 5752 5751 5750 5749 5748 5747 5747 5746 5745 5744 5743 5743 5742 5741 5740 5739 5738 5738 5737 5737 5736 5735 5734 5734 5733 5732 5731 5731 5730 5729 5728 5727 5726 5725 5724 5724 5723 5722 5721 5720 5719 5718 5717 5717 5716 5715 5714 5713 5712 5711 5710 5709 5708 5707 5707 5706 5704 5703 5702 5702 5701 5700 5699 5699 5698 5697 5697 5696
5780 5779 5778 5778 5777 5777 5776 5775 5774 5774 5773 5772 5772 5771 5770 5769 5768 5767 5767 5766 5765 5764 5763 5762 5762 5761 5760 5759 5757 5757 5755 5754 5753 5752 5751 5750 5749 5748 5747 5746 5745 5744 5743 5743 5742 5741 5740 5739 5738 5737 5737 5736 5735 5735 5734 5733 5732 5732 5731 5730 5729 5728 5727 5727 5726 5725 5724 5723 5722 5721 5720 5719 5718 5717 5717 5716 5715 5714 5713 5712 5711 5710 5709 5708 5707 5706 5705 5704 5703 5702 5701 5700 5699 5698 5697 5697 5696 5695 5694 5693 5692 5692 5691
5778 5777 5777 5776 5775 5774 5774 5773 5772 5772 5771 5770 5770 5769 5768 5767 5766 5765 5764 5764 5763 5762 5761 5760 5759 5758 5757 5756 5755 5754 5753 5752 5751 5750 5749 5747 5747 5746 5744 5743 5742 5742 5741 5740 5740 5739 5738 5737 5736 5735 5734 5733 5733 5732 5731 5730 5729 5728 5728 5727 5726 5725 5725 5724 5723 5722 5721 5719 5718 5717 5717 5716 5715 5714 5713 5712 5711 5710 5709 5707 5707 5706 5705 5704 5702 5702 5701 5700 5699 5697 5697 5695 5694 5693 5693 5692 5691 5690 5689 5689 5688 5687 5686
5776 5775 5774 5774 5773 5772 5772 5771 5770 5770 5769 5768 5767 5767 5766 5765 5764 5763 5762 5761 5760 5759 5758 5757 5757 5756 5755 5754 5753 5752 5750 5749 5748 5747 5746 5745 5744 5743 5742 5741 5740 5739 5738 5738 5737 5737 5736 5735 5734 5733 5732 5731 5730 5729 5728 5727 5727 5726 5725 5724 5723 5722 5721 5720 5719 5718 5717 5716 5715 5714 5713 5712 5711 5710 5709 5708 5707 5706 5705 5703 5702 5702 5701 5699 5698 5697 5696 5695 5694 5693 5692 5691 5690 5689 5688 5687 5687 5686 5685 5684 5683 5682 5682
5774 5773 5772 5772 5771 5771 5770 5769 5768 5767 5767 5766 5765 5764 5763 5762 5762 5761 5759 5758 5757 5757 5756 5755 5754 5753 5752 5751 5750 5749 5748 5747 5746 5745 5743 5742 5742 5741 5740 5739 5737 5737 5736 5735 5735 5734 5733 5732 5731 5730 5729 5728 5727 5726 5725 5724 5723 5722 5722 5721 5720 5719 5718 5717 5716 5715 5714 5713 5712 5710 5709 5708 5707 5706 5705 5704 5703 5702 5700 5699 5698 5697 5696 5695 5694 5693 5692 5691 5690 5689 5688 5687 5686 5685 5684 5683 5682 5681 5680 5679 5678 5677 5677
5772 5771 5771 5770 5769 5768 5768 5767 5766 5765 5765 5764 5763 5762 5761 5760 5759 5758 5757 5756 5755 5753 5752 5752 5751 5750 5749 5749 5748 5747 5746 5745 5743 5742 5741 5740 5739 5738 5737 5736 5735 5734 5733 5732 5732 5732 5731 5730 5728 5727 5727 5726 5724 5723 5722 5721 5720 5719 5718 5717 5716 5715 5714 5713 5712 5711 5710 5709 5708 5707 5705 5704 5703 5702 5701 5700 5698 5697 5696 5695 5694 5692 5692 5691 5689 5688 5687 5687 5685 5684 5683 5682 5681 5680 5679 5678 5677 5676 5675 5674 5673 5672 5672
5770 5769 5768 5768 5767 5766 5765 5765 5764 5763 5762 5761 5761 5760 5758 5757 5756 5755 5754 5753 5752 5751 5750 5749 5748 5747 5747 5746 5745 5744 5743 5742 5741 5740 5739 5738 5737 5736 5735 5734 5733 5732 5731 5730 5729 5729 5728 5727 5726 5725 5724 5722 5722 5721 5719 5718 5717 5716 5715 5714 5713 5712 5711 5710 5708 5707 5706 5705 5704 5702 5701 5700 5699 5697 5697 5695 5694 5692 5691 5690 5689 5688 5687 5686 5685 5683 5682 5681 5680 5679 5678 5677 5676 5675 5674 5673 5672 5671 5670 5669 5668 5667 5666
5767 5767 5766 5766 5765 5764 5763 5762 5762 5761 5760 5759 5758 5757 5756 5755 5754 5752 5752 5750 5749 5748 5747 5746 5745 5744 5744 5743 5742 5742 5741 5740 5738 5737 5737 5736 5735 5734 5733 5732 5730 5729 5728 5727 5726 5726 5725 5724 5723 5722 5721 5719 5718 5717 5716 5715 5714 5712 5712 5710 5709 5708 5707 5706 5705 5703 5702 5701 5699 5698 5697 5696 5694 5693 5692 5691 5689 5688 5687 5685 5684 5683 5682 5680 5679 5678 5677 5676 5675 5674 5672 5672 5670 5669 5668 5667 5666 5665 5664 5663 5662 5661 5660
5765 5765 5764 5763 5762 5762 5761 5760 5759 5758 5757 5757 5756 5755 5753 5752 5751 5750 5749 5748 5747 5746 5744 5743 5742 5742 5741 5740 5739 5738 5738 5737 5736 5735 5734 5733 5732 5732 5730 5729 5728 5727 5726 5724 5723 5723 5722 5721 5720 5718 5717 5716 5715 5714 5713 5712 5710 5709 5708 5707 5705 5704 5703 5702 5700 5699 5698 5697 5695 5694 5692 5691 5690 5689 5687 5686 5685 5683 5682 5680 5679 5677 5676 5675 5674 5672 5671 5670 5669 5668 5667 5665 5664 5663 5662 5661 5660 5659 5658 5657 5655 5654 5653
5763 5762 5762 5761 5760 5759 5758 5757 5757 5756 5755 5754 5753 5752 5751 5750 5748 5747 5746 5745 5744 5743 5742 5741 5740 5739 5738 5737 5737 5736 5735 5734 5733 5732 5732 5731 5730 5729 5728 5727 5726 5724 5723 5722 5721 5720 5719 5718 5717 5715 5714 5712 5712 5711 5709 5708 5707 5705 5704 5703 5701 5700 5699 5697 5696 5695 5693 5692 5690 5689 5688 5687 5685 5684 5682 5681 5680 5678 5677 5675 5674 5672 5671 5669 5668 5667 5665 5664 5662 5661 5660 5659 5658 5657 5656 5654 5653 5652 5651 5650 5648 5647 5646
5761 5760 5759 5759 5758 5757 5756 5755 5754 5753 5752 5751 5750 5749 5748 5747 5746 5745 5744 5742 5742 5740 5739 5738 5737 5736 5736 5735 5734 5733 5732 5732 5731 5730 5729 5728 5727 5726 5725 5724 5723 5722 5720 5719 5718 5717 5716 5715 5713 5712 5710 5709 5708 5707 5705 5704 5702 5701 5700 5699 5697 5696 5694 5693 5692 5690 5688 5687 5685 5684 5682 5681 5680 5678 5677 5675 5674 5672 5671 5669 5668 5667 5665 5663 5662 5661 5659 5658 5656 5655 5654 5652 5651 5650 5649 5648 5647 5645 5644 5643 5642 5640 5639
5759 5758 5757 5756 5755 5754 5753 5752 5752 5751 5750 5749 5748 5747 5746 5745 5744 5742 5741 5740 5739 5738 5737 5736 5735 5734 5733 5732 5731 5731 5730 5729 5728 5727 5726 5725 5725 5724 5723 5722 5721 5720 5718 5716 5715 5714 5713 5712 5711 5709 5707 5705 5704 5702 5701 5700 5698 5697 5696 5694 5693 5692 5690 5688 5687 5685 5684 5682 5680 5679 5677 5676 5674 5673 5671 5670 5668 5667 5665 5664 5662 5661 5659 5658 5657 5655 5653 5652 5651 5649 5648 5647 5646 5644 5643 5642 5641 5640 5638 5637 5636 5634 5633
5757 5756 5755 5754 5753 5752 5751 5750 5749 5748 5747 5746 5745 5744 5743 5742 5741 5740 5739 5738 5737 5736 5735 5734 5732 5731 5730 5729 5728 5727 5727 5726 5726 5725 5724 5722 5722 5721 5720 5719 5719 5718 5717 5715 5713 5712 5711 5709 5708 5706 5704 5702 5701 5699 5697 5696 5694 5693 5692 5690 5688 5687 5686 5684 5683 5681 5679 5677 5676 5674 5672 5671 5669 5667 5666 5664 5663 5661 5660 5658 5657 5655 5654 5652 5651 5650 5648 5647 5646 5644 5643 5642 5640 5639 5638 5637 5636 5634 5633 5632 5630 5629 5627
5754 5753 5752 5751 5750 5749 5748 5747 5747 5746 5745 5744 5743 5742 5741 5740 5739 5738 5737 5736 5734 5733 5732 5731 5730 5729 5727 5727 5726 5725 5724 5723 5722 5722 5722 5720 5719 5718 5717 5717 5716 5715 5715 5713 5712 5710 5709 5707 5705 5704 5702 5700 5698 5696 5694 5692 5691 5689 5687 5686 5684 5683 5682 5680 5678 5677 5675 5673 5672 5670 5668 5666 5664 5662 5661 5659 5657 5656 5654 5653 5651 5650 5648 5647 5646 5645 5643 5642 5641 5639 5638 5637 5636 5634 5633 5632 5630 5629 5627 5626 5625 5623 5622
5752 5751 5750 5749 5748 5747 5746 5745 5744 5743 5742 5741 5740 5739 5738 5737 5736 5735 5734 5733 5732 5731 5730 5729 5727 5727 5725 5724 5723 5722 5721 5720 5719 5718 5718 5717 5716 5715 5714 5714 5713 5711 5710 5710 5709 5707 5707 5706 5704 5702 5701 5698 5696 5694 5692 5690 5688 5686 5685 5683 5681 5679 5678 5676 5675 5673 5671 5669 5668 5666 5664 5662 5660 5658 5657 5655 5653 5652 5650 5648 5646 5645 5643 5642 5641 5640 5638 5637 5636 5635 5633 5632 5631 5629 5627 5626 5625 5623 5622 5621 5619 5617 5616
5749 5748 5747 5746 5745 5744 5743 5742 5741 5740 5739 5738 5737 5736 5735 5734 5733 5732 5731 5730 5729 5728 5727 5726 5725 5724 5723 5721 5720 5719 5718 5717 5716 5715 5714 5713 5712 5712 5710 5709 5709 5708 5707 5706 5705 5704 5703 5703 5702 5700 5699 5697 5695 5692 5690 5688 5686 5684 5682 5680 5678 5676 5674 5673 5671 5669 5667 5666 5664 5662 5660 5658 5657 5655 5653 5651 5649 5647 5645 5644 5642 5640 5639 5637 5636 5635 5633 5632 5631 5629 5628 5627 5625 5624 5622 5621 5619 5618 5616 5615 5613 5611 5609
5747 5746 5745 5744 5743 5742 5741 5740 5739 5737 5737 5736 5735 5733 5732 5732 5731 5730 5728 5727 5727 5726 5725 5724 5722 5722 5721 5719 5717 5716 5715 5714 5712 5711 5710 5709 5708 5707 5706 5705 5704 5703 5702 5701 5701 5700 5699 5698 5697 5697 5697 5695 5692 5690 5688 5686 5684 5681 5679 5677 5675 5673 5671 5669 5667 5666 5664 5662 5660 5658 5656 5655 5653 5651 5649 5647 5645 5643 5642 5640 5638 5636 5634 5632 5631 5630 5628 5627 5625 5624 5622 5621 5620 5618 5616 5615 5613 5612 5610 5608 5607 5604 5603
5744 5743 5742 5741 5740 5739 5738 5737 5736 5735 5734 5733 5732 5731 5730 5729 5728 5727 5726 5725 5724 5723 5722 5721 5720 5719 5718 5717 5715 5713 5712 5711 5709 5708 5707 5705 5703 5702 5702 5700 5699 5698 5697 5696 5695 5695 5693 5693 5692 5692 5692 5692 5690 5687 5684 5683 5681 5678 5676 5674 5672 5670 5668 5666 5664 5662 5660 5658 5656 5654 5652 5651 5649 5647 5645 5644 5642 5640 5637 5636 5633 5632 5630 5628 5626 5625 5623 5621 5620 5618 5617 5615 5613 5612 5610 5608 5607 5605 5603 5602 5599 5597 5595
5742 5741 5740 5739 5738 5737 5736 5735 5733 5732 5732 5730 5729 5728 5727 5726 5725 5724 5723 5722 5721 5720 5719 5718 5717 5716 5714 5713 5712 5711 5709 5708 5706 5705 5703 5701 5700 5698 5697 5695 5694 5693 5692 5691 5689 5688 5687 5687 5686 5686 5685 5686 5686 5684 5681 5678 5677 5675 5673 5670 5668 5666 5664 5662 5660 5658 5656 5654 5652 5651 5648 5647 5645 5643 5641 5639 5637 5636 5633 5631 5629 5627 5625 5623 5621 5619 5617 5616 5614 5612 5610 5609 5607 5605 5604 5602 5600 5598 5597 5594 5592 5590 5588
5739 5738 5737 5736 5735 5734 5733 5732 5731 5730 5729 5728 5727 5726 5725 5723 5722 5721 5720 5719 5718 5717 5716 5715 5714 5712 5711 5710 5709 5708 5706 5705 5703 5702 5700 5698 5696 5695 5693 5691 5689 5688 5687 5685 5684 5683 5682 5680 5680 5679 5679 5679 5680 5680 5679 5675 5672 5670 5669 5667 5664 5662 5660 5658 5656 5654 5652 5651 5648 5647 5645 5643 5641 5639 5637 5635 5633 5631 5629 5627 5624 5622 5620 5617 5616 5614 5612 5610 5608 5606 5604 5602 5601 5599 5597 5595 5593 5591 5589 5587 5585 5582 5580
5736 5735 5734 5733 5732 5731 5730 5729 5728 5727 5726 5725 5724 5723 5722 5721 5720 5718 5717 5716 5715 5714 5712 5711 5710 5709 5708 5707 5706 5704 5703 5701 5700 5699 5697 5695 5693 5692 5690 5688 5686 5684 5682 5681 5679 5678 5676 5675 5673 5672 5672 5672 5672 5673 5674 5672 5669 5666 5664 5662 5660 5658 5656 5654 5652 5650 5648 5647 5644 5642 5641 5639 5637 5635 5632 5630 5628 5626 5624 5622 5619 5617 5614 5612 5610 5607 5606 5603 5602 5600 5598 5596 5594 5592 5590 5588 5586 5584 5582 5580 5577 5575 5572
5734 5733 5732 5731 5730 5729 5727 5726 5725 5724 5723 5722 5721 5720 5719 5718 5717 5715 5714 5713 5712 5710 5709 5708 5707 5706 5704 5703 5702 5701 5699 5698 5696 5695 5694 5692 5690 5688 5687 5685 5683 5681 5679 5677 5675 5673 5671 5669 5668 5667 5666 5665 5665 5665 5666 5667 5665 5662 5659 5657 5655 5653 5652 5650 5648 5646 5644 5642 5640 5638 5636 5634 5632 5630 5628 5626 5623 5621 5619 5617 5614 5611 5609 5606 5603 5601 5599 5597 5595 5593 5591 5589 5587 5585 5582 5580 5578 5576 5574 5572 5569 5567 5564